DateTimeUTC,F1_A11,F1_S11,BsB_S11,BsG_S11,BsR_S11,BbsB_S11,BbsG_S11,BbsR_S11,BaB_A11,BaG_A11,BaR_A11,Tu_S11,T_S11,Uu_S11,U_S11,P_S11,T1_A11
2021-10-29T06:00:00Z,00000200,21000000,,,,,,,0000.47,0000.65,0000.27,18.7,25.6,,00.0,0645.1,31.1
2021-10-29T06:01:00Z,00000200,21000000,,,,,,,0000.92,0000.69,0000.69,18.7,25.6,,00.0,0645.1,31.1
2021-10-29T06:02:00Z,00000200,21000000,,,,,,,0000.74,0000.66,0000.80,18.8,25.6,,00.0,0645.1,31.1
2021-10-29T06:03:00Z,00000200,61000000,,,,,,,0001.39,0001.09,0000.55,18.8,25.7,,00.0,0645.1,31.1
2021-10-29T06:04:00Z,00000200,41000000,0000.48,0000.31,-000.01,0000.44,0000.12,-000.35,0000.90,0000.89,0000.60,19.0,25.5,,00.0,0645.9,31.1
2021-10-29T06:05:00Z,00000200,01000000,-000.31,0000.45,0000.06,-000.02,0000.26,-000.04,-000.15,0000.10,0000.25,18.9,25.5,,00.0,0645.9,31.1
2021-10-29T06:06:00Z,00000200,01000000,0001.00,0000.53,0000.36,0000.07,0000.14,-000.16,0000.47,0000.22,0000.46,18.8,25.4,,00.0,0645.9,31.1
2021-10-29T06:07:00Z,00000200,01000000,0000.97,0000.51,0000.31,0000.61,0000.05,-000.17,0000.33,0000.26,-000.15,18.7,25.4,,00.0,0645.9,31.0
2021-10-29T06:08:00Z,00000200,01000000,0000.61,0000.08,0000.13,0000.57,0000.07,-000.11,0000.26,0000.41,-000.09,18.7,25.3,,00.0,0645.9,31.0
2021-10-29T06:09:00Z,00000200,01000000,0000.24,0000.28,-000.06,-000.05,-000.20,-000.34,0000.20,0000.11,0000.77,18.6,25.3,,00.0,0645.9,31.0
2021-10-29T06:10:00Z,00000200,01000000,0000.37,0000.44,0000.40,-000.17,-000.17,-000.42,0000.76,0000.57,0000.31,18.5,25.2,,00.0,0645.9,31.0
2021-10-29T06:11:00Z,00000200,01000000,0000.45,0000.67,-000.03,0000.34,-000.07,-000.18,0000.51,0000.14,0000.17,18.4,25.2,,00.0,0645.8,31.0
2021-10-29T06:12:00Z,00000200,01000000,0000.51,0000.63,0000.01,-000.02,0000.37,-000.56,-000.04,0000.06,0000.21,18.4,25.1,,00.0,0645.9,31.0
2021-10-29T06:13:00Z,00000200,01000000,0000.24,0000.70,0000.00,0000.68,0000.10,-000.22,0000.26,0000.09,0000.11,18.5,25.1,,00.0,0645.9,31.0
2021-10-29T06:14:00Z,00000200,01000000,0000.81,0000.23,0000.09,-000.03,0000.16,-000.21,0000.65,0000.76,0000.43,18.5,25.1,,00.0,0645.8,31.1
2021-10-29T06:15:00Z,00000200,01000000,0000.14,0000.59,-000.41,0000.29,0000.06,-000.28,-000.12,-000.05,0000.13,18.6,25.1,,00.0,0645.9,31.1
2021-10-29T06:16:00Z,00000200,01000000,0000.04,0000.43,-000.01,0000.17,0000.04,0000.05,-000.04,0000.11,-000.17,18.6,25.2,,00.0,0645.9,31.1
2021-10-29T06:17:00Z,00000200,01000000,-000.30,0000.42,-000.03,0000.86,-000.13,-000.52,0000.37,0000.49,0000.30,18.7,25.2,,00.0,0645.9,31.1
2021-10-29T06:18:00Z,00000200,01000000,-000.10,0000.25,0000.06,-000.05,0000.09,0000.16,0000.17,0000.03,0000.08,18.8,25.2,,00.0,0645.9,31.1
2021-10-29T06:19:00Z,00000200,01000000,0000.57,0000.35,0000.00,-000.22,0000.28,-000.18,0000.53,0000.56,0000.47,18.8,25.3,,00.0,0645.9,31.1
2021-10-29T06:20:00Z,00000200,01000000,0000.20,0000.55,-000.04,-000.09,-000.11,-000.21,0000.02,-000.15,-000.13,18.9,25.3,,00.0,0645.9,31.1
2021-10-29T06:21:00Z,00000200,01000000,0000.40,0000.08,-000.07,-000.02,0000.05,-000.07,0000.58,0000.84,0000.39,18.9,25.3,,00.0,0645.9,31.1
2021-10-29T06:22:00Z,00000200,01000000,0000.52,0000.62,0000.05,-000.25,0000.06,-000.20,0000.61,0000.17,0000.32,19.0,25.3,,00.0,0645.9,31.1
2021-10-29T06:23:00Z,00000200,01000000,0001.26,0001.03,0000.07,0000.31,0000.10,0000.12,0000.47,0000.36,0000.54,19.1,25.4,,00.0,0645.9,31.1
2021-10-29T06:24:00Z,00000200,01000000,0000.89,0000.59,0000.17,-000.13,0000.46,-000.11,-000.08,0000.32,-000.29,19.1,25.4,,00.0,0645.9,31.1
2021-10-29T06:25:00Z,00000200,01000000,0000.56,0000.63,0000.03,0000.22,0000.68,0000.10,0000.30,0000.22,0000.34,19.1,25.4,,00.0,0645.9,31.1
2021-10-29T06:26:00Z,00000200,01000000,0000.51,0000.70,0000.28,-000.33,-000.12,0000.26,0000.31,0000.08,0000.12,19.1,25.4,,00.0,0645.9,31.1
2021-10-29T06:27:00Z,00000200,01000000,0000.35,0000.52,0000.39,0000.46,0000.13,0000.21,0000.05,0000.62,0000.46,19.1,25.4,,00.0,0645.9,31.1
2021-10-29T06:28:00Z,00000200,01000000,0000.30,0000.61,-000.09,-000.06,0000.22,-000.14,0000.74,0000.11,0000.03,19.1,25.4,,00.0,0645.9,31.1
2021-10-29T06:29:00Z,00000200,01000000,0001.08,0000.71,-000.32,-000.22,0000.18,-000.20,-000.08,-000.29,0000.04,19.1,25.4,,00.0,0645.9,31.1
2021-10-29T06:30:00Z,00000200,01000000,0001.17,0000.42,0000.22,-000.01,0000.21,-000.09,-000.27,0000.07,-000.09,19.2,25.4,,00.0,0645.9,31.1
2021-10-29T06:31:00Z,00000200,01000000,-000.04,0000.68,-000.16,-000.43,-000.05,0000.12,0000.39,-000.08,-000.06,19.2,25.5,,00.0,0645.9,31.2
2021-10-29T06:32:00Z,00000200,01000000,0000.19,0000.76,0000.10,0000.34,-000.01,-000.20,-000.03,-000.19,0000.10,19.3,25.5,,00.0,0645.9,31.2
2021-10-29T06:33:00Z,00000200,01000000,0000.19,0000.22,-000.07,-000.02,0000.29,-000.29,-000.02,0000.71,-000.03,19.3,25.5,,00.0,0645.9,31.1
2021-10-29T06:34:00Z,00000200,01000000,0000.24,0000.36,0000.40,0000.17,-000.02,0000.10,0000.25,-000.16,0000.15,19.3,25.5,,00.0,0645.9,31.2
2021-10-29T06:35:00Z,00000200,01000000,0000.81,0000.71,-000.00,-000.58,0000.25,-000.10,0000.01,0000.03,0000.39,19.3,25.6,,00.0,0645.9,31.1
2021-10-29T06:36:00Z,00000200,01000000,0000.87,0000.46,-000.00,0000.02,0000.02,-000.04,-000.05,-000.23,-000.55,19.2,25.5,,00.0,0646.0,31.1
2021-10-29T06:37:00Z,00000200,01000000,0000.12,0000.48,-000.08,0000.22,0000.24,0000.12,-000.06,0000.21,0000.34,19.1,25.5,,00.0,0646.0,31.1
2021-10-29T06:38:00Z,00000200,01000000,0000.45,0000.67,0000.43,-000.13,0000.16,-000.19,0000.40,0000.32,0000.21,19.0,25.4,,00.0,0645.9,31.1
2021-10-29T06:39:00Z,00000200,01000000,0000.70,0000.75,0000.35,-000.22,0000.33,-000.15,0000.39,0000.24,0000.05,18.9,25.4,,00.0,0645.9,31.1
2021-10-29T06:40:00Z,00000200,01000000,0000.17,0000.57,0000.05,-000.05,0000.31,-000.22,0000.39,0000.48,0000.34,18.8,25.3,,00.0,0645.9,31.0
2021-10-29T06:41:00Z,00000200,01000000,0000.57,0000.86,-000.10,0000.97,0000.20,-000.13,0000.50,0000.42,0000.18,18.7,25.3,,00.0,0645.9,31.0
2021-10-29T06:42:00Z,00000200,01000000,0000.32,0000.42,0000.19,-000.08,0000.22,0000.01,0000.56,0000.33,0000.28,18.7,25.2,,00.0,0645.9,31.0
2021-10-29T06:43:00Z,00000200,01000000,-000.17,0000.70,0000.05,0001.39,0000.17,-000.11,0000.30,0000.22,0000.63,18.7,25.2,,00.0,0645.9,31.0
2021-10-29T06:44:00Z,00000200,01000000,0000.11,0000.50,0000.18,0000.35,0000.45,-000.18,0000.02,0000.32,0000.12,18.7,25.2,,00.0,0645.9,31.1
2021-10-29T06:45:00Z,00000200,01000000,0000.26,0000.50,0000.04,0000.22,0000.06,-000.31,0000.33,0000.12,0000.06,18.8,25.2,,00.0,0645.9,31.1
2021-10-29T06:46:00Z,00000200,01000000,0000.14,0000.35,0000.13,0000.53,0000.13,-000.16,0000.46,0000.65,0000.23,18.9,25.3,,00.0,0645.9,31.1
2021-10-29T06:47:00Z,00000200,01000000,-000.10,0000.23,0000.12,0000.47,0000.08,-000.12,-000.17,-000.48,-000.27,18.9,25.3,,00.0,0646.0,31.1
2021-10-29T06:48:00Z,00000200,01000000,0000.57,0000.09,-000.11,0000.09,-000.03,-000.19,-000.63,-000.59,-000.36,19.0,25.3,,00.0,0646.0,31.1
2021-10-29T06:49:00Z,00000200,01000000,-000.56,0000.37,0000.01,0000.13,0000.22,-000.14,-000.40,-000.41,-000.30,19.0,25.4,,00.0,0646.1,31.1
2021-10-29T06:50:00Z,00000200,01000000,-000.39,0000.27,-000.31,0000.41,-000.19,-000.09,-000.58,-000.29,-000.36,19.1,25.4,,00.0,0646.1,31.1
2021-10-29T06:51:00Z,00000200,01000000,-000.85,0000.06,-000.06,-000.16,-000.07,0000.06,-000.13,-000.15,-000.17,19.1,25.4,,00.0,0646.1,31.1
2021-10-29T06:52:00Z,00000200,01000000,0000.07,0000.23,0000.24,0000.41,-000.31,-000.19,-000.30,-000.20,-000.21,19.1,25.4,,00.0,0646.1,31.1
2021-10-29T06:53:00Z,00000200,01000000,-000.85,0000.05,-000.02,0000.45,0000.22,-000.21,-000.47,-000.48,-000.23,19.1,25.4,,00.0,0646.1,31.2
2021-10-29T06:54:00Z,00000200,01000000,0000.43,0000.23,-000.16,-000.48,0000.06,-000.12,0000.31,0000.24,0000.17,19.0,25.4,,00.0,0646.2,31.1
2021-10-29T06:55:00Z,00000200,01000000,0000.32,-000.06,0000.12,-000.00,0000.31,-000.15,-000.34,0000.06,-000.64,18.9,25.4,,00.0,0646.2,31.1
2021-10-29T06:56:00Z,00000200,01000000,-000.04,0000.18,-000.10,0000.53,0000.03,-000.14,0000.28,-000.52,0000.23,18.8,25.3,,00.0,0646.2,31.1
2021-10-29T06:57:00Z,00000200,41000000,,,,,,,0000.32,0000.41,0000.08,18.9,25.4,,00.0,0646.2,31.1
2021-10-29T06:58:00Z,00000200,61000000,,,,,,,-000.35,-000.23,0000.36,18.6,25.4,,00.0,0645.3,31.1
2021-10-29T06:59:00Z,00000200,21000000,,,,,,,0000.01,0000.07,-000.50,18.6,25.5,,00.0,0645.3,31.1
